Location: Philomena
(55.1756°N, 111.6233°W)
Time: 09:04:05
(UTC+00:00)

PCSat - Pass Details

Date: 14 December 2023
Orbit: 784 x 791 km, 67.0° (Epoch: 23 February)

Event Time Altitude Azimuth Distance (km) Brightness Sun altitude
Exits shadow 12:56:47 26° 341° (NNW) 1,514 10.8 -22.3°
Maximum altitude 12:57:00 26° 345° (NNW) 1,512 10.8 -22.2°
Drops below altitude 10° 13:01:32 10° 42° (NE) 2,366 12.4 -21.6°
Sets 13:04:21 0° 55° (NE) 3,298 13.4 -21.2°
